FW5311 Weather Reports


time (UTC)temp
F
wind
direction
speed
knots
gust
knots
rain 1hr
in
rain 24hr
in
rain mn
in
humidity
%
barometer
mb
20260504011543 65 283 13.0 21.7 0.00 0.00 0.00 35 992.2
20260504010048 66 305 13.9 21.7 0.00 0.00 0.00 36 992.5
20260504004549 66 280 6.1 11.3 0.00 0.00 0.00 44 992.7
20260504003051 67 288 8.7 14.8 0.00 0.00 0.00 43 992.6
20260504001552 67 260 8.7 16.5 0.00 0.00 0.00 43 992.6
20260504000050 68 259 11.3 19.1 0.00 0.00 0.00 42 992.9
20260503234601 68 232 15.6 26.1 0.00 0.00 0.00 41 993.1
20260503233048 68 247 17.4 26.1 0.00 0.00 0.00 40 993.4
20260503231548 69 247 13.0 23.5 0.00 0.00 0.00 38 993.6
20260503230047 69 259 12.2 25.2 0.00 0.00 0.00 37 993.6
20260503224543 70 250 16.5 26.1 0.00 0.00 0.00 34 993.6
20260503223042 70 264 14.8 24.3 0.00 0.00 0.00 32 993.8
20260503221554 70 262 14.8 29.5 0.00 0.00 0.00 31 994.1
20260503220043 71 230 13.0 24.3 0.00 0.00 0.00 27 994.4
20260503214545 71 227 11.3 20.0 0.00 0.00 0.00 28 994.5
20260503213046 70 227 13.0 21.7 0.00 0.00 0.00 29 994.9
20260503211546 68 207 9.6 25.2 0.00 0.00 0.00 33 995.6
20260503210043 69 240 11.3 26.9 0.00 0.00 0.00 29 996.0
20260503204546 70 245 7.0 21.7 0.00 0.00 0.00 28 996.1
20260503203055 70 241 7.8 27.8 0.00 0.00 0.00 30 996.6
20260503201549 70 254 13.0 24.3 0.00 0.00 0.00 29 997.3
20260503200050 71 254 10.4 26.9 0.00 0.00 0.00 29 997.7
20260503194552 71 244 14.8 30.4 0.00 0.00 0.00 29 998.3
20260503193043 71 223 13.0 20.0 0.00 0.00 0.00 30 998.6
20260503191541 70 263 13.9 21.7 0.00 0.00 0.00 31 998.9
20260503190041 69 224 10.4 19.1 0.00 0.00 0.00 32 999.5
20260503184544 68 209 9.6 18.2 0.00 0.00 0.00 33 1000.1
20260503183051 68 236 10.4 19.1 0.00 0.00 0.00 33 1000.8
20260503181539 68 196 10.4 17.4 0.00 0.00 0.00 31 1001.0
20260503180050 68 273 8.7 16.5 0.00 0.00 0.00 31 1001.5
20260503174543 67 221 8.7 12.2 0.00 0.00 0.00 30 1002.0
20260503173041 66 255 9.6 15.6 0.00 0.00 0.00 32 1002.5
20260503171547 65 242 8.7 13.9 0.00 0.00 0.00 35 1003.0
20260503081542 33 0 0.0 2.6 0.00 0.00 0.00 77 1008.9
20260503071603 36 290 0.9 1.7 0.00 0.00 0.00 73 1009.2
20260503054552 41 321 0.9 2.6 0.00 0.00 0.00 64 1009.4
20260503053043 42 325 0.9 5.2 0.00 0.00 0.00 63 1009.4
20260503051542 43 338 3.5 5.2 0.00 0.00 0.00 62 1009.3
20260503050043 45 346 3.5 7.8 0.00 0.00 0.00 60 1009.4
20260503044540 46 355 5.2 11.3 0.00 0.00 0.00 58 1009.0
20260503043040 47 9 6.1 10.4 0.00 0.00 0.00 57 1009.1
20260503041543 49 360 7.0 13.0 0.00 0.00 0.00 57 1008.9
20260503040051 50 345 6.1 9.6 0.00 0.00 0.00 57 1009.0
20260503034538 51 327 6.1 9.6 0.00 0.00 0.00 55 1008.6
20260503033041 51 304 4.3 8.7 0.00 0.00 0.00 53 1008.5
20260503031546 51 298 1.7 8.7 0.00 0.00 0.00 52 1008.4
20260503030048 52 303 7.0 13.0 0.00 0.00 0.00 52 1008.5
20260503024542 51 310 1.7 5.2 0.00 0.00 0.00 52 1008.5
20260503023046 49 291 2.6 7.0 0.00 0.00 0.00 55 1008.2
20260503021540 51 340 0.9 1.7 0.00 0.00 0.00 54 1008.0
20260503020040 52 346 0.0 2.6 0.00 0.00 0.00 53 1007.8
20260503014603 55 346 1.7 3.5 0.00 0.00 0.00 51 1007.7
20260503013043 57 355 3.5 8.7 0.00 0.00 0.00 47 1007.6